When you browse on this site, cookies collect data to enhance your experience and personalize the content and advertising you see.
Visit our Privacy Policy to learn more. By continuing to use the site, you agree to this use of cookies and data.
  • En España
  • Lista de países
  • Para 7 días
  • Temperatura del agua
  • El tiempo en el mapa
  • Informadores
  • user-avatar
    Iniciar sesión

    Tiempo cada hora Salzburg

    Hoy, 7 Abril, Martes

    Tiempo Temperatura Precipitaciones Viento Presión Humedad
    00:00 -1°C° 0 mm 2 mps 631 mmHg 76%
    01:00 -1°C° 0 mm 2 mps 631 mmHg 73%
    02:00 -1°C° 0 mm 2 mps 631 mmHg 72%
    03:00 -2°C° 0 mm 2 mps 631 mmHg 72%
    04:00 0°C° 0 mm 1 mps 632 mmHg 71%
    05:00 +1°C° 0 mm 1 mps 632 mmHg 69%
    06:00 +2°C° 0 mm 1 mps 633 mmHg 68%
    07:00 +4°C° 0 mm 1 mps 634 mmHg 66%
    08:00 +7°C° 0 mm 1 mps 634 mmHg 62%
    09:00 +9°C° 0 mm 1 mps 635 mmHg 57%
    10:00 +11°C° 0 mm 1 mps 636 mmHg 53%
    11:00 +12°C° 0 mm 1 mps 636 mmHg 50%
    12:00 +13°C° 0 mm 1 mps 636 mmHg 47%
    13:00 +13°C° 0 mm 1 mps 636 mmHg 43%
    14:00 +13°C° 0 mm 1 mps 636 mmHg 44%
    15:00 +13°C° 0 mm 1 mps 635 mmHg 45%
    16:00 +12°C° 0 mm 1 mps 635 mmHg 47%
    17:00 +10°C° 0 mm 1 mps 634 mmHg 58%
    18:00 +7°C° 0 mm 1 mps 633 mmHg 68%
    19:00 +4°C° 0 mm 1 mps 632 mmHg 79%
    20:00 +3°C° 0 mm 2 mps 632 mmHg 78%
    21:00 +2°C° 0 mm 2 mps 632 mmHg 76%
    22:00 +1°C° 0 mm 2 mps 632 mmHg 75%
    23:00 +1°C° 0 mm 2 mps 632 mmHg 72%

    Mañana, 8 Abril, Miércoles

    Tiempo Temperatura Precipitaciones Viento Presión Humedad
    00:00 -1°C° 0 mm 2 mps 632 mmHg 69%
    01:00 -1°C° 0 mm 2 mps 632 mmHg 67%
    02:00 -2°C° 0 mm 2 mps 632 mmHg 65%
    03:00 -2°C° 0 mm 2 mps 631 mmHg 64%
    04:00 -2°C° 0 mm 2 mps 631 mmHg 63%
    05:00 -1°C° 0 mm 2 mps 631 mmHg 60%
    06:00 +1°C° 0 mm 2 mps 632 mmHg 58%
    07:00 +2°C° 0 mm 2 mps 632 mmHg 56%
    08:00 +6°C° 0 mm 1 mps 633 mmHg 49%
    09:00 +9°C° 0 mm 1 mps 634 mmHg 43%
    10:00 +12°C° 0 mm 1 mps 634 mmHg 36%
    11:00 +13°C° 0 mm 1 mps 634 mmHg 35%
    12:00 +14°C° 0 mm 1 mps 634 mmHg 34%
    13:00 +15°C° 0 mm 1 mps 634 mmHg 33%
    14:00 +14°C° 0 mm 1 mps 634 mmHg 35%
    15:00 +13°C° 0 mm 1 mps 633 mmHg 38%
    16:00 +13°C° 0 mm 1 mps 633 mmHg 41%
    17:00 +10°C° 0 mm 1 mps 631 mmHg 54%
    18:00 +7°C° 0 mm 1 mps 630 mmHg 67%
    19:00 +4°C° 0 mm 1 mps 629 mmHg 80%
    20:00 +4°C° 0 mm 1 mps 629 mmHg 79%
    21:00 +3°C° 0 mm 1 mps 630 mmHg 78%
    22:00 +3°C° 0 mm 1 mps 630 mmHg 77%
    23:00 +3°C° 0 mm 1 mps 630 mmHg 77%

    Pasado mañana, 9 Abril, Jueves

    Tiempo Temperatura Precipitaciones Viento Presión Humedad
    00:00 +3°C° 0 mm 1 mps 630 mmHg 77%
    01:00 +2°C° 0 mm 1 mps 630 mmHg 77%
    02:00 +2°C° 0 mm 1 mps 629 mmHg 79%
    03:00 +2°C° 0 mm 1 mps 629 mmHg 81%
    04:00 +2°C° 0 mm 1 mps 629 mmHg 83%
    05:00 +3°C° 0 mm 1 mps 629 mmHg 81%
    06:00 +4°C° 0 mm 1 mps 630 mmHg 79%
    07:00 +5°C° 0 mm 1 mps 630 mmHg 76%
    08:00 +7°C° 0.1 mm 1 mps 631 mmHg 71%
    09:00 +9°C° 0.1 mm 1 mps 631 mmHg 65%
    10:00 +11°C° 0.1 mm 1 mps 632 mmHg 60%
    11:00 +11°C° 0.1 mm 1 mps 632 mmHg 58%
    12:00 +11°C° 0.1 mm 1 mps 632 mmHg 57%
    13:00 +12°C° 0.1 mm 1 mps 631 mmHg 56%
    14:00 +11°C° 0.1 mm 1 mps 631 mmHg 59%
    15:00 +10°C° 0.1 mm 2 mps 631 mmHg 63%
    16:00 +9°C° 0.1 mm 2 mps 630 mmHg 67%
    17:00 +9°C° 0.2 mm 1 mps 630 mmHg 75%
    18:00 +7°C° 0.2 mm 1 mps 630 mmHg 83%
    19:00 +5°C° 0.2 mm 1 mps 629 mmHg 91%
    20:00 +5°C° 0 mm 1 mps 629 mmHg 91%
    21:00 +4°C° 0 mm 1 mps 629 mmHg 92%
    22:00 +3°C° 0 mm 0 mps 630 mmHg 92%
    23:00 +2°C° 0 mm 0 mps 630 mmHg 92%

    10 Abril, Viernes

    Tiempo Temperatura Precipitaciones Viento Presión Humedad
    00:00 +3°C° 0 mm 1 mps 630 mmHg 92%
    01:00 +3°C° 0 mm 1 mps 629 mmHg 92%
    02:00 +2°C° 0 mm 1 mps 629 mmHg 92%
    03:00 +2°C° 0 mm 1 mps 629 mmHg 92%
    04:00 +2°C° 0 mm 1 mps 629 mmHg 92%
    05:00 +3°C° 0 mm 1 mps 629 mmHg 90%
    06:00 +4°C° 0 mm 1 mps 630 mmHg 88%
    07:00 +4°C° 0 mm 1 mps 630 mmHg 86%
    08:00 +6°C° 0 mm 0 mps 631 mmHg 76%
    09:00 +8°C° 0 mm 0 mps 632 mmHg 67%
    10:00 +11°C° 0 mm 0 mps 633 mmHg 57%
    11:00 +12°C° 0 mm 1 mps 633 mmHg 52%
    12:00 +13°C° 0 mm 1 mps 633 mmHg 47%
    13:00 +14°C° 0 mm 1 mps 633 mmHg 41%
    14:00 +13°C° 0 mm 1 mps 632 mmHg 44%
    15:00 +13°C° 0 mm 2 mps 632 mmHg 46%
    16:00 +12°C° 0 mm 2 mps 631 mmHg 48%
    17:00 +10°C° 0 mm 1 mps 630 mmHg 61%
    18:00 +8°C° 0 mm 1 mps 629 mmHg 74%
    19:00 +5°C° 0 mm 1 mps 628 mmHg 87%
    20:00 +5°C° 0 mm 1 mps 628 mmHg 88%
    21:00 +4°C° 0 mm 1 mps 629 mmHg 89%
    22:00 +4°C° 0 mm 1 mps 629 mmHg 90%
    23:00 +3°C° 0 mm 1 mps 629 mmHg 91%

    11 Abril, Sábado

    Tiempo Temperatura Precipitaciones Viento Presión Humedad
    00:00 +3°C° 0 mm 1 mps 628 mmHg 91%
    01:00 +3°C° 0 mm 1 mps 628 mmHg 91%
    02:00 +3°C° 0 mm 1 mps 628 mmHg 91%
    03:00 +3°C° 0 mm 1 mps 628 mmHg 91%
    04:00 +3°C° 0 mm 1 mps 628 mmHg 91%
    05:00 +3°C° 0 mm 1 mps 629 mmHg 88%
    06:00 +3°C° 0 mm 0 mps 629 mmHg 85%
    07:00 +4°C° 0 mm 0 mps 629 mmHg 82%
    08:00 +6°C° 0 mm 0 mps 630 mmHg 73%
    09:00 +10°C° 0 mm 1 mps 631 mmHg 65%
    10:00 +12°C° 0 mm 1 mps 631 mmHg 56%
    11:00 +12°C° 0 mm 1 mps 631 mmHg 53%
    12:00 +13°C° 0 mm 1 mps 631 mmHg 51%
    13:00 +13°C° 0 mm 2 mps 631 mmHg 48%
    14:00 +13°C° 0.1 mm 2 mps 631 mmHg 51%
    15:00 +12°C° 0.1 mm 2 mps 631 mmHg 54%
    16:00 +12°C° 0.1 mm 2 mps 630 mmHg 58%
    17:00 +10°C° 0.1 mm 1 mps 629 mmHg 69%
    18:00 +8°C° 0.1 mm 1 mps 629 mmHg 81%
    19:00 +4°C° 0.1 mm 0 mps 628 mmHg 92%
    20:00 +4°C° 0 mm 0 mps 628 mmHg 92%
    21:00 +5°C° 0 mm 1 mps 628 mmHg 93%
    22:00 +4°C° 0 mm 1 mps 628 mmHg 93%
    23:00 +4°C° 0 mm 1 mps 628 mmHg 93%

    12 Abril, Domingo

    Tiempo Temperatura Precipitaciones Viento Presión Humedad
    00:00 +4°C° 0 mm 1 mps 628 mmHg 93%
    01:00 +3°C° 0 mm 1 mps 628 mmHg 92%
    02:00 +3°C° 0 mm 1 mps 627 mmHg 92%
    03:00 +3°C° 0 mm 1 mps 627 mmHg 92%
    04:00 +3°C° 0 mm 1 mps 627 mmHg 92%
    05:00 +4°C° 0 mm 1 mps 627 mmHg 89%
    06:00 +5°C° 0 mm 1 mps 627 mmHg 86%
    07:00 +6°C° 0 mm 1 mps 628 mmHg 84%
    08:00 +8°C° 0 mm 1 mps 628 mmHg 75%
    09:00 +11°C° 0 mm 1 mps 629 mmHg 67%
    10:00 +12°C° 0 mm 0 mps 629 mmHg 58%
    11:00 +13°C° 0.4 mm 1 mps 629 mmHg 59%
    12:00 +13°C° 0.4 mm 1 mps 628 mmHg 59%
    13:00 +13°C° 0.4 mm 1 mps 628 mmHg 59%
    14:00 +13°C° 1 mm 1 mps 627 mmHg 63%
    15:00 +12°C° 1 mm 1 mps 626 mmHg 67%
    16:00 +11°C° 1 mm 1 mps 625 mmHg 72%
    17:00 +10°C° 0.7 mm 1 mps 625 mmHg 77%
    18:00 +8°C° 0.7 mm 1 mps 624 mmHg 83%
    19:00 +7°C° 0.7 mm 1 mps 623 mmHg 89%
    20:00 +6°C° 0.3 mm 1 mps 623 mmHg 90%
    21:00 +6°C° 0.3 mm 1 mps 623 mmHg 91%
    22:00 +6°C° 0.3 mm 1 mps 623 mmHg 92%
    23:00 +5°C° 0.2 mm 1 mps 623 mmHg 93%
    Mostrar más